Natchitoches, LA

4:53 AM CDT on August 17, 2017 (GMT -0500)
Natchitoches Regional

Weather History for KIER - November, 2012

Change the Weather History Date:

Tuesday, November 13, 2012

  Actual Average Record
Temperature  
Mean Temperature 44 °F -  
Max Temperature 57 °F 69 °F 88 °F (1955)
Min Temperature 30 °F 43 °F 27 °F (1950)
Degree Days  
Heating Degree Days 22    
Moisture  
Dew Point 32 °F    
Average Humidity 68    
Maximum Humidity 100    
Minimum Humidity 33    
Precipitation  
Precipitation 0.00 in - - ()
Sea Level Pressure  
Sea Level Pressure 30.44 in    
Wind  
Wind Speed 2 mph (NE)    
Max Wind Speed 10 mph    
Max Gust Speed 17 mph    
Visibility 10 miles    
Events      
Averages and records for this station are not official NWS values.
T = Trace of Precipitation, MM = Missing Value Source: NWS Daily Summary

Daily Weather History Graph

Daily Weather History Graph

Search for Another Location

Airport or City:

Trip Planner

Search our weather history database for the weather conditions in past years. The results will help you decide how hot, cold, wet, or windy it might be!

Date:

Astronomy

Nov. 13, 2012 Rise Set
Actual Time 6:39 AM CST 5:13 PM CST
Civil Twilight 6:13 AM CST 5:39 PM CST
Nautical Twilight 5:44 AM CST 6:08 PM CST
Astronomical Twilight 5:15 AM CST 6:37 PM CST
Moon 6:17 AM CST (11/13) 5:09 PM CST (11/13)
Length of Visible Light 11h 26m
Length of Day
10h 34m
Waning Crescent, 0% of the Moon is Illuminated
Nov 13
Waning Crescent
Nov 13
New
Nov 20
First Quarter
Nov 28
Full
Dec 6
Last Quarter

Hourly Weather History & Observations

Time (CST) Temp. Windchill Dew Point Humidity Pressure Visibility Wind Dir Wind Speed Gust Speed Precip Events Conditions
12:15 AM 34.3 °F - 33.8 °F 98% 30.47 in 10.0 mi Calm Calm - N/A   Clear
12:35 AM 34.0 °F - 33.8 °F 99% 30.47 in 10.0 mi Calm Calm - N/A   Clear
12:55 AM 33.8 °F - 33.3 °F 98% 30.47 in 10.0 mi Calm Calm - N/A   Clear
1:15 AM 33.1 °F - 32.9 °F 99% 30.47 in 10.0 mi Calm Calm - N/A   Clear
1:35 AM 32.4 °F - 32.4 °F 100% 30.47 in 10.0 mi Calm Calm - N/A   Clear
1:55 AM 32.5 °F - 32.5 °F 100% 30.47 in 10.0 mi Calm Calm - N/A   Clear
2:15 AM 32.2 °F - 32.2 °F 100% 30.47 in 10.0 mi Calm Calm - N/A   Clear
2:35 AM 32.0 °F - 32.0 °F 100% 30.48 in 10.0 mi Calm Calm - N/A   Clear
2:55 AM 31.8 °F - 31.8 °F 100% 30.48 in 10.0 mi Calm Calm - N/A   Clear
3:35 AM 31.8 °F - 31.8 °F 100% 30.48 in 10.0 mi Calm Calm - N/A   Clear
3:55 AM 31.5 °F - 31.5 °F 100% 30.48 in 10.0 mi Calm Calm - N/A   Clear
4:15 AM 31.1 °F - 31.1 °F 100% 30.49 in 10.0 mi Calm Calm - N/A   Clear
4:35 AM 30.4 °F - 30.4 °F 100% 30.49 in 10.0 mi Calm Calm - N/A   Clear
4:55 AM 30.7 °F - 30.7 °F 100% 30.49 in 10.0 mi Calm Calm - N/A   Clear
5:15 AM 30.9 °F - 30.9 °F 100% 30.49 in 10.0 mi Calm Calm - N/A   Clear
5:35 AM 30.9 °F - 30.9 °F 100% 30.49 in 10.0 mi Calm Calm - N/A   Clear
5:55 AM 30.2 °F - 30.2 °F 100% 30.49 in 10.0 mi Calm Calm - N/A   Clear
6:15 AM 30.2 °F - 30.2 °F 100% 30.50 in 7.0 mi Calm Calm - N/A   Clear
6:35 AM 30.9 °F - 30.9 °F 100% 30.50 in 7.0 mi Calm Calm - N/A   Clear
6:55 AM 30.2 °F - 30.2 °F 100% 30.51 in 7.0 mi Calm Calm - N/A   Clear
7:15 AM 32.0 °F - 32.0 °F 100% 30.51 in 10.0 mi Calm Calm - N/A   Clear
7:35 AM 33.1 °F - 33.1 °F 100% 30.52 in 10.0 mi Calm Calm - N/A   Clear
7:55 AM 37.0 °F - 36.7 °F 99% 30.52 in 10.0 mi Calm Calm - N/A   Clear
8:15 AM 41.5 °F - 36.0 °F 81% 30.52 in 10.0 mi Calm Calm - N/A   Clear
8:35 AM 44.2 °F - 35.8 °F 72% 30.53 in 10.0 mi Calm Calm - N/A   Clear
8:55 AM 46.6 °F - 33.1 °F 59% 30.53 in 10.0 mi NE 4.6 mph - N/A   Clear
9:15 AM 47.7 °F - 32.5 °F 56% 30.53 in 10.0 mi NNE 5.8 mph - N/A   Clear
9:35 AM 48.7 °F - 33.1 °F 55% 30.53 in 10.0 mi ENE 8.1 mph - N/A   Clear
9:55 AM 50.2 °F - 32.4 °F 50% 30.52 in 10.0 mi NE 6.9 mph - N/A   Clear
10:15 AM 50.5 °F - 31.6 °F 48% 30.51 in 10.0 mi NE 5.8 mph - N/A   Clear
10:35 AM 51.8 °F - 31.3 °F 46% 30.50 in 10.0 mi NE 9.2 mph 17.3 mph N/A   Clear
10:55 AM 53.1 °F - 32.0 °F 45% 30.49 in 10.0 mi ENE 9.2 mph - N/A   Clear
11:15 AM 54.5 °F - 30.6 °F 40% 30.47 in 10.0 mi NE 6.9 mph - N/A   Clear
11:35 AM 55.4 °F - 28.2 °F 35% 30.46 in 10.0 mi ENE 9.2 mph - N/A   Clear
11:55 AM 55.2 °F - 28.6 °F 36% 30.44 in 10.0 mi ENE 6.9 mph - N/A   Clear
12:15 PM 55.4 °F - 30.0 °F 38% 30.43 in 10.0 mi ENE 10.4 mph - N/A   Clear
12:55 PM 56.5 °F - 30.4 °F 37% 30.40 in 10.0 mi NNE 9.2 mph - N/A   Clear
1:15 PM 57.4 °F - 29.7 °F 35% 30.39 in 10.0 mi NNE 9.2 mph - N/A   Clear
1:35 PM 57.7 °F - 29.3 °F 34% 30.38 in 10.0 mi NE 9.2 mph - N/A   Clear
1:55 PM 57.4 °F - 28.6 °F 33% 30.38 in 10.0 mi NNE 6.9 mph - N/A   Clear
2:15 PM 56.3 °F - 28.4 °F 34% 30.37 in 10.0 mi NNE 5.8 mph - N/A   Clear
2:35 PM 57.6 °F - 29.7 °F 35% 30.37 in 10.0 mi ENE 8.1 mph - N/A   Clear
2:55 PM 57.2 °F - 28.8 °F 34% 30.36 in 10.0 mi NNE 9.2 mph - N/A   Clear
3:15 PM 56.1 °F - 28.9 °F 35% 30.37 in 10.0 mi NE 6.9 mph - N/A   Clear
3:35 PM 56.7 °F - 29.5 °F 35% 30.37 in 10.0 mi NNE 6.9 mph - N/A   Clear
3:55 PM 57.4 °F - 29.3 °F 34% 30.37 in 10.0 mi NNE 4.6 mph - N/A   Clear
4:15 PM 56.3 °F - 28.8 °F 35% 30.37 in 10.0 mi NE 6.9 mph - N/A   Clear
4:35 PM 54.0 °F - 28.9 °F 38% 30.36 in 10.0 mi NE 5.8 mph - N/A   Clear
4:55 PM 52.5 °F - 28.9 °F 40% 30.36 in 10.0 mi North 5.8 mph - N/A   Clear
5:15 PM 50.2 °F - 30.4 °F 47% 30.36 in 10.0 mi North 3.5 mph - N/A   Clear
5:35 PM 48.6 °F - 31.6 °F 52% 30.36 in 10.0 mi North 4.6 mph - N/A   Clear
5:55 PM 48.4 °F - 32.0 °F 53% 30.36 in 10.0 mi NNE 4.6 mph - N/A   Clear
6:15 PM 46.2 °F - 32.9 °F 60% 30.37 in 10.0 mi Calm Calm - N/A   Clear
6:35 PM 45.3 °F 44.0 °F 34.0 °F 65% 30.37 in 10.0 mi NNE 3.5 mph - N/A   Clear
6:55 PM 46.8 °F - 34.5 °F 62% 30.37 in 10.0 mi North 4.6 mph - N/A   Clear
7:15 PM 46.6 °F - 34.7 °F 63% 30.37 in 10.0 mi NNE 3.5 mph - N/A   Clear
7:35 PM 46.4 °F 45.2 °F 34.5 °F 63% 30.37 in 10.0 mi NNE 3.5 mph - N/A   Clear
7:55 PM 45.5 °F 43.2 °F 35.1 °F 67% 30.37 in 10.0 mi NNE 4.6 mph - N/A   Clear
8:15 PM 45.9 °F - 34.7 °F 65% 30.38 in 10.0 mi Calm Calm - N/A   Clear
8:35 PM 42.6 °F - 36.7 °F 79% 30.40 in 10.0 mi Calm Calm - N/A   Clear
8:55 PM 39.9 °F - 36.5 °F 88% 30.40 in 10.0 mi Calm Calm - N/A   Clear
9:15 PM 41.4 °F 38.4 °F 36.5 °F 83% 30.38 in 10.0 mi ENE 4.6 mph - N/A   Clear
9:35 PM 44.6 °F 42.2 °F 34.5 °F 68% 30.39 in 10.0 mi NE 4.6 mph - N/A   Clear
9:55 PM 45.0 °F 42.6 °F 33.4 °F 64% 30.39 in 10.0 mi NE 4.6 mph - N/A   Clear
10:15 PM 44.6 °F 42.2 °F 33.3 °F 64% 30.39 in 10.0 mi NE 4.6 mph - N/A   Clear
10:35 PM 43.9 °F 42.3 °F 32.9 °F 65% 30.39 in 10.0 mi NE 3.5 mph - N/A   Clear
10:55 PM 43.3 °F 40.7 °F 33.1 °F 67% 30.39 in 10.0 mi NE 4.6 mph - N/A   Clear
11:15 PM 42.8 °F 40.1 °F 33.1 °F 69% 30.39 in 10.0 mi NE 4.6 mph - N/A   Clear
11:35 PM 43.7 °F 41.1 °F 33.6 °F 68% 30.38 in 10.0 mi NE 4.6 mph - N/A   Clear
11:55 PM 43.3 °F 40.7 °F 33.6 °F 69% 30.38 in 10.0 mi NE 4.6 mph - N/A   Clear